Home   Weather   Calgary   Past weeks

Flag for Canada Past Weather in Calgary, Alberta, Canada — Yesterday and Last 2 Weeks

Now
55 °F

Mostly cloudy.


Feels Like: 53 °F
Forecast: 44 / 65 °F
Wind: 10 mph from Southeast

Location: Calgary International

Current Time: Sep 29, 2016 at 7:41:38 PM

Latest Report: Sep 29, 2016 at 7:00 PM


Visibility: 15 mi

Pressure: 30.15 "Hg (26.55 "Hg at 1063m altitude)

Humidity: 63%

Dew Point: 43 °F

Location of CalgaryLocation

Past Weather in Calgary — Graph

°F

Calgary Temperature Yesterday

Maximum temperature yesterday: 54 °F (at 4:00 PM)
Minimum temperature yesterday: 46 °F (at 1:00 AM)
Average temperature yesterday: 50 °F

High & Low Weather Summary for the Past Weeks

 TemperatureHumidityPressure
High75 °F (Sep 16, 4:00 PM)93% (Sep 20, 9:45 AM)30.40 "Hg (Sep 20, 9:45 AM)
Low36 °F (Sep 25, 6:00 AM)19% (Sep 18, 5:00 PM)29.50 "Hg (Sep 17, 8:00 PM)
Average52 °F59%30.07 "Hg
* Reported Sep 14 6:00 PM — Sep 29 6:00 PM, Calgary, Weather by CustomWeather, © 2016

Note: Actual official high and low records may vary slightly from our data, if they occured in-between our weather recording intervals... More about our weather records

Advertising

Calgary Weather History for the Previous 24 Hours

Scroll right to see more
 ConditionsComfort  
Time TempWeatherWind HumidityBarometerVisibility
6:00 PM
Thu, Sep 29
57 °FBroken clouds.9 mph59%30.14 "Hg15 mi
5:00 PM59 °FPartly sunny.6 mph55%30.13 "Hg15 mi
4:00 PM57 °FBroken clouds.3 mph59%30.15 "Hg15 mi
3:00 PM59 °FBroken clouds.8 mph51%30.16 "Hg15 mi
2:00 PM54 °FMostly cloudy.6 mph63%30.19 "Hg15 mi
1:00 PM52 °FOvercast.6 mph67%30.21 "Hg15 mi
12:00 PM52 °FPartly sunny.5 mph67%30.22 "Hg30 mi
11:00 AM48 °FScattered clouds.6 mph71%30.22 "Hg30 mi
10:00 AM45 °FPassing clouds.3 mph76%30.23 "Hg30 mi
9:00 AM41 °FPassing clouds.3 mph87%30.24 "Hg30 mi
8:00 AM37 °FPassing clouds.5 mph87%30.24 "Hg30 mi
7:00 AM39 °FPassing clouds.No wind87%30.22 "Hg15 mi
6:00 AM39 °FPassing clouds.No wind87%30.22 "Hg15 mi
5:00 AM41 °FPassing clouds.5 mph81%30.22 "Hg14 mi
4:00 AM39 °FOvercast.7 mph87%30.22 "Hg15 mi
3:00 AM41 °FOvercast.2 mph87%30.23 "Hg14 mi
2:00 AM43 °FOvercast.7 mph81%30.23 "Hg15 mi
1:00 AM45 °FPassing clouds.9 mph76%30.24 "Hg15 mi
12:00 AM45 °FPassing clouds.9 mph76%30.25 "Hg15 mi
11:00 PM
Wed, Sep 28
46 °FMostly cloudy.9 mph71%30.26 "Hg15 mi
10:00 PM48 °FOvercast.12 mph71%30.26 "Hg15 mi
9:00 PM48 °FPassing clouds.12 mph71%30.26 "Hg15 mi
8:00 PM50 °FPassing clouds.7 mph67%30.25 "Hg15 mi
7:00 PM54 °FPartly sunny.9 mph63%30.24 "Hg15 mi
Weather by CustomWeather, © 2016

See weather overviewHow to use our weather pages